Regional Weather Roundup
Issued by NWS

Home | Current Version | Previous Version | Text Only | Print | Product List | Glossary Off
Versions: 1 2 3 4 5 6 7 8 9 10 11 12 13 14 15 16 17 18 19 20 21 22 23 24 25 26 27 28 29 30 31 32 33 34 35 36 37 38 39 40 41 42 43 44 45 46 47 48 49 50

892
ASUS43 KMPX 260601
RWRMN
WEATHER ROUNDUP FOR MINNESOTA
NATIONAL WEATHER SERVICE TWIN CITIES/CHANHASSEN MN
1200 AM CST SUN FEB 26 2017


NOTE: "FAIR" INDICATES FEW OR NO CLOUDS BELOW 12,000 FEET WITH NO
SIGNIFICANT WEATHER AND/OR OBSTRUCTIONS TO VISIBILITY. N/A MEANS
CURRENT SKY AND/OR WEATHER CONDITIONS ARE NOT AVAILABLE.

MNZ060>063-068>070-260700-
   Twin Cities Metro

CITY           SKY/WX    TMP DP  RH WIND       PRES   REMARKS
TWIN CITIES    MOCLDY    25  15  66 SW10      29.82F WCI  15
6HR MIN TEMP:  25; 6HR MAX TEMP:  32;

ST PAUL        CLOUDY    26  16  65 S8        29.83F WCI  18
CRYSTAL        CLOUDY    25  14  63 S12       29.78F WCI  14
BLAINE         CLOUDY    27  18  69 S10G18    29.79F WCI  17
LAKEVILLE      CLOUDY    23  16  74 S5        29.82F WCI  17
EDEN PRAIRIE   CLOUDY    25  16  68 S13       29.80F WCI  14
6HR MIN TEMP:  25; 6HR MAX TEMP:  30;

SOUTH ST PAUL  CLOUDY    26  16  65 S8        29.82F WCI  18
LAKE ELMO      FAIR      27  19  74 S8        29.82F WCI  18
$$
MNZ001>005-007-008-013>017-022>024-027-028-260700-
   Northwest Minnesota

CITY           SKY/WX    TMP DP  RH WIND       PRES   REMARKS
BEMIDJI        CLOUDY    17  15  90 CALM      29.66F
HALLOCK        LGT SNOW  12  10  92 NW5       29.74R WCI   4
ROSEAU         PTCLDY    12   9  85 NW6       29.70S WCI   3
WARROAD        CLEAR     10   7  85 W5        29.69F WCI   2
THIEF RVR FALL CLEAR     14   9  80 N8        29.70F WCI   3
CROOKSTON      CLOUDY    18  12  79 NE7       29.72F WCI   8
FOSSTON        CLOUDY    18  12  79 N3        29.68F
DETROIT LAKES  CLEAR     25  23  93 CALM      29.68F
MOORHEAD       CLEAR     23  19  86 SW5       29.71F WCI  17
PARK RAPIDS    CLOUDY    23  19  85 SW6       29.66F WCI  16
MAHNOMEN       FAIR      19  17  90 CALM      29.67F
$$
MNZ006-009>011-018-025>026-260700-
   North Central Minnesota

CITY           SKY/WX    TMP DP  RH WIND       PRES   REMARKS
BAUDETTE       MOCLDY    12   5  73 NW8       29.66F WCI   0
FLAG ISLAND    CLOUDY    12   7  79 NW8       29.67F WCI   1
INTL FALLS     CLEAR     12   6  77 NW3       29.66F
6HR MIN TEMP:  12; 6HR MAX TEMP:  21; 6HR PCP: TRACE;

WASKISH        CLEAR      9   7  92 W3        29.68S
BIG FORK       PTCLDY    19  16  86 CALM      29.67F
LONGVILLE      LGT SNOW  25  23  93 CALM      29.67F
GRAND RAPIDS   LGT SNOW  24  21  88 CALM      29.68F FOG
CRANE LAKE     MOCLDY    12  10  92 CALM      29.69S
ORR            CLOUDY    18  12  79 CALM      29.64F
COOK           CLOUDY    21  16  79 W6        29.67S WCI  14
WALKER         CLOUDY    21  19  91 CALM      29.67F
$$
MNZ012-019>021-037-260700-
   Northeast Minnesota

CITY           SKY/WX    TMP DP  RH WIND       PRES   REMARKS
DULUTH         LGT SNOW  26  24  92 SW3       29.67F VSB 3/4
6HR MIN TEMP:  26; 6HR MAX TEMP:  27; 6HR PCP:  0.06;

ELY            FLURRIES  19  18  93 W3        29.66S
HIBBING        CLOUDY    20  19  96 CALM      29.66F
EVELETH        PTCLDY    22  20  90 CALM      29.67F
DULUTH HARBOR  LGT SNOW  27  25  93 CALM      29.73F
TWO HARBORS    LGT SNOW  25  19  80 W3        29.68F
SILVER BAY     MOCLDY    18  16  93 CALM      29.68S
GRAND MARAIS     N/A     24  16  71 W3        29.71S
G MARAIS ARPRT LGT SNOW  16  10  79 W3        29.63F
$$
MNZ029>031-032-039>041-046>048-054>057-064-260700-
   West Central Minnesota

CITY           SKY/WX    TMP DP  RH WIND       PRES   REMARKS
FERGUS FALLS   FOG       19  19 100 CALM      29.75S VSB<1/4
WHEATON        CLEAR     23  21  93 SW3       29.75S FOG
MORRIS         CLOUDY    28  27  93 N7        29.71S WCI  21
ALEXANDRIA     CLOUDY    27  23  85 NW6       29.70S WCI  20
ELBOW LAKE     FAIR      23  23 100 CALM      29.71F FOG
WADENA         LGT SNOW  21  21 100 CALM      29.68S
GLENWOOD       CLOUDY    27  21  80 MISG      29.70F
APPLETON       PTCLDY    28  23  80 W8        29.73F WCI  20
BENSON         CLOUDY    30  21  69 W6        29.74F WCI  24
ORTONVILLE       N/A     28  23  80 CALM      29.72F
MADISON        MOCLDY    30  23  74 SW14      29.73S WCI  20
WILLMAR        FAIR      28  23  80 SW8       29.75F WCI  20
$$
MNZ033>034-036-042>043-049>051-058-059-260700-
   Central Minnesota

CITY           SKY/WX    TMP DP  RH WIND       PRES   REMARKS
ST CLOUD       CLOUDY    27  19  72 S14G22    29.74F WCI  16
6HR MIN TEMP:  27; 6HR MAX TEMP:  32;

SAUK CENTRE    CLOUDY    28  22  78 SW13      29.71F WCI  17
PAYNESVILLE    CLOUDY    26  21  83 S12       29.74F WCI  15
AITKIN         LGT SNOW  28  25  86 CALM      29.68S
PINE RIVER     LGT SNOW  25  25 100 CALM      29.72S
BRAINERD       LGT SNOW  26  24  92 SW5       29.69F FOG     WCI  20
STAPLES        LGT SNOW  23  23 100 CALM      29.68F
LONG PRAIRIE   CLOUDY    28  21  74 S14G22    29.69F WCI  17
LITTLE FALLS   CLOUDY    28  21  74 S13       29.71F WCI  18
LITCHFIELD     MIX PCPN  27  21  80 S3        29.76F
BUFFALO        CLOUDY    26  18  72 S10       29.79S WCI  15
MAPLE LAKE     MOCLDY    27  20  75 SW8       29.77F WCI  19
HUTCHINSON     CLOUDY    25  19  78 S9        29.78F WCI  16
$$
MNZ037-044-045-052-053-260700-
   East Central Minnesota

CITY           SKY/WX    TMP DP  RH WIND       PRES   REMARKS
PRINCETON      CLOUDY    28  19  69 S10G17    29.75F WCI  19
MORA           CLOUDY    27  19  74 SW14      29.75F WCI  15
CAMBRIDGE      CLOUDY    28  18  64 S12       29.75F WCI  18
RUSH CITY      CLOUDY    27  19  74 S10G16    29.76F WCI  17
MOOSE LAKE     CLOUDY    28  23  80 SW10      29.69S WCI  19
HINCKLEY       CLOUDY    28  21  74 SW13      29.74S WCI  18
CLOQUET        FLURRIES  25  23  93 CALM      29.68F
MCGREGOR       CLOUDY    28  27  93 S5        29.68F WCI  23
$$
MNZ071>073-080-081-089-090-097-098-260700-
   Southwest Minnesota

CITY           SKY/WX    TMP DP  RH WIND       PRES   REMARKS
MONTEVIDEO     CLOUDY    27  21  80 W8        29.75F WCI  18
GRANITE FALLS  CLOUDY    29  23  77 SW10      29.76F WCI  20
CANBY          CLOUDY    27  23  82 SW5       29.75F WCI  22
MARSHALL       CLOUDY    26  20  77 SW15G22   29.74F WCI  14
REDWOOD FALLS  CLOUDY    27  19  72 SW14      29.76F WCI  16
OLIVIA         CLOUDY    28  21  74 SW10      29.75F WCI  19
PIPESTONE      CLEAR     21  18  86 SW8       29.74F WCI  12
WINDOM         CLOUDY    23  18  80 S12       29.77F WCI  12
WORTHINGTON    PTCLDY    20  16  84 SW14      29.78F WCI   7
JACKSON        PTCLDY    19  14  79 S10       29.79F WCI   8
TRACY          CLOUDY    26  21  81 SW17      29.75F WCI  13
SLAYTON        PTCLDY    22  19  88 SW14      29.75F WCI   9
$$
MNZ065>067-074>077-082>085-091>093-260700-
   South Central Minnesota

CITY           SKY/WX    TMP DP  RH WIND       PRES   REMARKS
MANKATO          N/A     20  15  81 S9        29.82F WCI   9
NEW ULM        CLOUDY    23  16  74 S9        29.79F WCI  13
ST JAMES       CLOUDY    21  18  86 S10       29.81F WCI  10
FAIRMONT       MOCLDY    19  15  84 S9        29.82F WCI   8
GLENCOE        PTCLDY    25  20  82 S9        29.78F WCI  16
FARIBAULT      MOCLDY    23  16  74 S8        29.83F WCI  14
OWATONNA       CLOUDY    25  16  68 S12       29.82F WCI  14
WASECA         MOCLDY    23  18  80 S14       29.83F WCI  11
ALBERT LEA     CLOUDY    25  18  74 S13       29.83F WCI  13
$$
MNZ078>079-086>088-094>096-260700-
   Southeast Minnesota

CITY           SKY/WX    TMP DP  RH WIND       PRES   REMARKS
ROCHESTER      CLOUDY    21  15  78 S16       29.85F WCI   7
6HR MIN TEMP:  14; 6HR MAX TEMP:  21;

RED WING       CLOUDY    25  12  58 S8        29.85F WCI  16
STANTON        CLOUDY    24  15  70 S7        29.82F WCI  16
WINONA           N/A     25  16  68 S5        29.92F WCI  19
AUSTIN         CLOUDY    19  16  86 S7        29.85F WCI  10
PRESTON        CLOUDY    22  15  76 S10       29.88F WCI  11
$$
ABBREVIATIONS USED IN REMARKS
   TC - TEMPERATURES IN CELSIUS
  WCI - WIND CHILL INDEX
   HX - HEAT INDEX
  VSB - VISIBILITY
$$




USA.gov is the U.S. government's official web portal to all federal, state and local government web resources and services.